カタログに戻る

QIANFAN-64

運用中通信PO
NORAD 62794·PAYLOAD·🇨🇳 China

打ち上げ Jan 23, 2025 から Taiyuan Satellite Launch Center

Loading…

次のパス (今後24時間)

TLE

最新Source: Space-Track

元期: Sep 14, 2026, 21:58 UTC

1 62794U 25016K   26257.91539734  .00000034  00000-0  34690-4 0  9998
2 62794  88.9656  74.3244 0012206 262.8763  97.1000 13.51027246 84551

AllMySatでQIANFAN-64をリアルタイム追跡

Download on the App Store